Location: Baili�vre
(50.0696°N, 4.2409°E)
Time: 15:32:21
(UTC+00:00)

Cosmos 540 Rocket - Pass Details

Date: 08 August 2020
Orbit: 740 x 754 km, 74.1° (Epoch: 24 September)

Event Time Altitude Azimuth Distance (km) Brightness Sun altitude
Rises 21:33:32 0° 339° (NNW) 3,211 8.3 -17.7°
Reaches altitude 10° 21:36:00 10° 345° (NNW) 2,284 7.1 -18.0°
Maximum altitude 21:40:59 47° 59° (ENE) 997 4.0 -18.4°
Enters shadow 21:43:11 30° 115° (ESE) 1,345 4.3 -18.6°
